Location: Livorno
(43.5500°N, 10.3170°E)
Time: 13:17:01
(UTC+01:00)

STRAND 1 - Visible Passes

Search period start: 16 January 2021 00:00
Search period end: 26 January 2021 00:00
Orbit: 768 x 781 km, 98.4° (Epoch: 15 January)

Date Brightness Start Highest point End Pass type
(mag) Time Alt. Az. Time Alt. Az. Time Alt. Az.
16 Jan ? 06:12:39 10° SE 06:17:29 46° ENE 06:22:21 10° N visible
16 Jan ? 18:28:06 11° ESE 18:28:06 11° ESE 18:28:36 10° ESE visible
16 Jan ? 20:08:30 27° SSW 20:08:30 27° SSW 20:10:45 10° SSW visible
17 Jan ? 05:39:42 10° ESE 05:43:42 24° ENE 05:47:42 10° NNE visible
17 Jan ? 19:33:52 30° SSE 19:33:52 30° SSE 19:36:35 10° S visible
18 Jan ? 05:08:00 10° E 05:10:04 13° ENE 05:12:10 10° NNE visible
18 Jan ? 06:43:21 10° SSE 06:48:27 87° ENE 06:53:35 10° NNW visible
18 Jan ? 18:59:14 22° SE 18:59:14 22° SE 19:01:39 10° SSE visible
18 Jan ? 20:39:37 20° SW 20:39:37 20° SW 20:41:17 10° SW visible
19 Jan ? 06:09:43 10° SE 06:14:30 43° ENE 06:19:20 10° N visible
19 Jan ? 18:24:36 12° ESE 18:24:36 12° ESE 18:25:19 10° ESE visible
19 Jan ? 20:04:59 33° SSW 20:04:59 33° SSW 20:07:46 10° SSW visible
20 Jan ? 05:36:50 10° ESE 05:40:44 23° ENE 05:44:38 10° NNE visible
20 Jan ? 19:30:21 36° SSE 19:30:21 36° SSE 19:33:33 10° S visible
20 Jan ? 21:10:43 12° WSW 21:10:43 12° WSW 21:11:12 10° WSW visible
21 Jan ? 05:05:20 10° ENE 05:07:08 12° ENE 05:08:56 10° NE visible
21 Jan ? 06:40:23 10° SSE 06:45:28 82° ENE 06:50:36 10° NNW visible
21 Jan ? 18:55:42 23° ESE 18:55:42 23° ESE 18:58:32 10° SSE visible
21 Jan ? 20:36:05 25° WSW 20:36:05 25° WSW 20:38:23 10° SW visible
22 Jan ? 06:06:48 10° SE 06:11:32 41° ENE 06:16:18 10° N visible
22 Jan ? 18:21:02 12° ESE 18:21:02 12° ESE 18:21:59 10° ESE visible
22 Jan ? 20:01:25 43° SSW 20:01:25 43° SSW 20:04:48 10° SSW visible
23 Jan ? 05:33:59 10° ESE 05:37:46 21° ENE 05:41:34 10° NNE visible
23 Jan ? 07:11:37 10° S 07:16:34 52° W 07:21:34 10° NNW visible
23 Jan ? 19:26:45 41° SE 19:26:45 41° SE 19:30:32 10° S visible
23 Jan ? 21:07:08 15° WSW 21:07:08 15° WSW 21:08:21 10° WSW visible
24 Jan ? 05:02:44 10° ENE 05:04:11 11° NE 05:05:37 10° NE visible
24 Jan ? 06:37:24 10° SSE 06:42:29 77° ENE 06:47:36 10° N visible
24 Jan ? 18:52:04 23° ESE 18:52:04 23° ESE 18:55:25 10° SSE visible
24 Jan ? 20:32:27 31° WSW 20:32:27 31° WSW 20:35:28 10° SW visible
25 Jan ? 06:03:52 10° SE 06:08:33 38° ENE 06:13:16 10° N visible
25 Jan ? 18:17:23 11° E 18:17:23 11° E 18:18:35 10° ESE visible
25 Jan ? 19:57:46 57° SSW 19:57:46 57° SSW 20:01:49 10° SSW visible
